TimeCDT,TemperatureF,Dew PointF,Humidity,Sea Level PressureIn,VisibilityMPH,Wind Direction,Wind SpeedMPH,Gust SpeedMPH,PrecipitationIn,Events,Conditions,WindDirDegrees,DateUTC
12:14 AM,39.2,28.4,65,29.76,10.0,WNW,13.8,-,N/A,,Mostly Cloudy,290,2013-03-31 05:14:00
12:33 AM,39.2,28.4,65,29.76,10.0,WNW,12.7,-,N/A,,Mostly Cloudy,290,2013-03-31 05:33:00
12:53 AM,39.2,28.4,65,29.76,10.0,West,12.7,-,N/A,,Overcast,280,2013-03-31 05:53:00
1:14 AM,39.2,28.4,65,29.76,10.0,West,11.5,-,N/A,,Overcast,280,2013-03-31 06:14:00
1:33 AM,39.2,28.4,65,29.75,10.0,West,8.1,-,N/A,,Overcast,280,2013-03-31 06:33:00
1:53 AM,37.4,28.4,70,29.75,10.0,West,9.2,-,N/A,,Overcast,270,2013-03-31 06:53:00
2:14 AM,37.4,28.4,70,29.75,10.0,West,16.1,-,N/A,,Overcast,270,2013-03-31 07:14:00
2:33 AM,37.4,28.4,70,29.74,10.0,West,18.4,-,N/A,,Overcast,280,2013-03-31 07:33:00
2:53 AM,37.4,28.4,70,29.75,10.0,West,17.3,-,N/A,,Overcast,270,2013-03-31 07:53:00
3:14 AM,37.4,28.4,70,29.75,10.0,West,13.8,-,N/A,,Overcast,270,2013-03-31 08:14:00
3:34 AM,37.4,28.4,70,29.74,10.0,West,16.1,-,N/A,,Overcast,280,2013-03-31 08:34:00
3:53 AM,35.6,30.2,81,29.73,10.0,WNW,16.1,-,N/A,,Overcast,290,2013-03-31 08:53:00
4:14 AM,35.6,30.2,81,29.73,10.0,West,9.2,-,N/A,,Overcast,270,2013-03-31 09:14:00
4:34 AM,35.6,30.2,81,29.72,10.0,West,11.5,-,N/A,,Overcast,270,2013-03-31 09:34:00
4:53 AM,35.6,30.2,81,29.72,10.0,West,11.5,-,N/A,,Overcast,270,2013-03-31 09:53:00
5:14 AM,35.6,28.4,75,29.71,10.0,West,11.5,-,N/A,,Overcast,270,2013-03-31 10:14:00
5:34 AM,35.6,28.4,75,29.71,10.0,West,10.4,-,N/A,,Overcast,260,2013-03-31 10:34:00
5:53 AM,35.6,28.4,75,29.71,10.0,West,10.4,-,N/A,,Overcast,260,2013-03-31 10:53:00
6:14 AM,35.6,28.4,75,29.71,10.0,West,10.4,-,N/A,,Overcast,260,2013-03-31 11:14:00
6:34 AM,35.6,28.4,75,29.71,10.0,West,10.4,-,N/A,,Overcast,270,2013-03-31 11:34:00
6:53 AM,35.6,28.4,75,29.71,7.0,West,12.7,17.3,N/A,,Overcast,270,2013-03-31 11:53:00
7:14 AM,35.6,30.2,81,29.71,10.0,West,12.7,-,N/A,,Overcast,260,2013-03-31 12:14:00
7:34 AM,33.8,30.2,87,29.71,4.0,WSW,12.7,-,N/A,,Overcast,250,2013-03-31 12:34:00
7:53 AM,33.8,30.2,87,29.71,3.0,West,12.7,-,N/A,,Overcast,260,2013-03-31 12:53:00
8:14 AM,33.8,30.2,87,29.71,10.0,WSW,11.5,-,N/A,,Overcast,250,2013-03-31 13:14:00
8:34 AM,33.8,30.2,87,29.72,10.0,West,10.4,-,N/A,,Overcast,270,2013-03-31 13:34:00
8:53 AM,33.8,30.2,87,29.73,2.5,WNW,12.7,-,N/A,,Overcast,290,2013-03-31 13:53:00
9:14 AM,33.8,28.4,81,29.73,4.0,WNW,11.5,15.0,N/A,,Overcast,300,2013-03-31 14:14:00
9:34 AM,33.8,26.6,75,29.73,10.0,NW,18.4,-,N/A,,Overcast,310,2013-03-31 14:34:00
9:53 AM,35.6,26.6,70,29.74,10.0,NW,18.4,27.6,N/A,,Mostly Cloudy,320,2013-03-31 14:53:00
10:13 AM,33.8,26.6,75,29.75,10.0,NW,17.3,27.6,N/A,,Mostly Cloudy,320,2013-03-31 15:13:00
10:34 AM,35.6,23.0,60,29.76,10.0,NW,19.6,-,N/A,,Mostly Cloudy,320,2013-03-31 15:34:00
10:53 AM,33.8,21.2,60,29.77,10.0,WNW,27.6,31.1,N/A,,Overcast,300,2013-03-31 15:53:00
11:14 AM,33.8,17.6,52,29.78,10.0,NW,20.7,28.8,N/A,,Overcast,320,2013-03-31 16:14:00
11:33 AM,35.6,17.6,48,29.79,10.0,NW,21.9,26.5,N/A,,Mostly Cloudy,310,2013-03-31 16:33:00
11:53 AM,33.8,15.8,48,29.79,10.0,NW,24.2,27.6,N/A,,Mostly Cloudy,310,2013-03-31 16:53:00
12:14 PM,33.8,15.8,48,29.80,10.0,NW,18.4,27.6,N/A,,Mostly Cloudy,320,2013-03-31 17:14:00
12:34 PM,33.8,17.6,52,29.81,10.0,NW,16.1,27.6,N/A,,Overcast,320,2013-03-31 17:34:00
12:53 PM,33.8,17.6,52,29.81,10.0,NW,21.9,31.1,N/A,,Mostly Cloudy,310,2013-03-31 17:53:00
1:14 PM,35.6,14.0,41,29.82,10.0,NW,18.4,28.8,N/A,,Mostly Cloudy,310,2013-03-31 18:14:00
1:34 PM,35.6,12.2,38,29.82,10.0,NNW,16.1,24.2,N/A,,Scattered Clouds,330,2013-03-31 18:34:00
1:53 PM,33.8,19.4,56,29.83,10.0,NW,17.3,28.8,N/A,,Mostly Cloudy,310,2013-03-31 18:53:00
2:14 PM,35.6,14.0,41,29.83,10.0,NW,19.6,26.5,N/A,,Mostly Cloudy,310,2013-03-31 19:14:00
2:33 PM,35.6,17.6,48,29.84,10.0,NW,19.6,26.5,N/A,,Mostly Cloudy,310,2013-03-31 19:33:00
2:54 PM,33.8,17.6,52,29.84,10.0,WNW,20.7,25.3,N/A,,Scattered Clouds,300,2013-03-31 19:54:00
3:13 PM,35.6,15.8,44,29.85,10.0,WNW,21.9,25.3,N/A,,Scattered Clouds,290,2013-03-31 20:13:00
3:33 PM,33.8,21.2,60,29.85,10.0,WNW,13.8,18.4,N/A,,Scattered Clouds,300,2013-03-31 20:33:00
3:54 PM,35.6,15.8,44,29.85,10.0,WNW,23.0,26.5,N/A,,Mostly Cloudy,300,2013-03-31 20:54:00
4:13 PM,33.8,15.8,48,29.86,10.0,WNW,21.9,-,N/A,,Mostly Cloudy,290,2013-03-31 21:13:00
4:34 PM,33.8,14.0,44,29.87,10.0,NW,18.4,27.6,N/A,,Scattered Clouds,310,2013-03-31 21:34:00
4:53 PM,33.8,15.8,48,29.88,10.0,NW,15.0,28.8,N/A,,Mostly Cloudy,310,2013-03-31 21:53:00
5:14 PM,33.8,10.4,38,29.88,10.0,NW,21.9,27.6,N/A,,Mostly Cloudy,310,2013-03-31 22:14:00
5:34 PM,33.8,10.4,38,29.89,10.0,NW,19.6,26.5,N/A,,Mostly Cloudy,320,2013-03-31 22:34:00
5:53 PM,32.0,10.4,41,29.90,10.0,NW,21.9,27.6,N/A,,Mostly Cloudy,310,2013-03-31 22:53:00
6:14 PM,32.0,12.2,44,29.92,10.0,NW,19.6,27.6,N/A,,Overcast,320,2013-03-31 23:14:00
6:34 PM,32.0,12.2,44,29.92,10.0,NW,16.1,20.7,N/A,,Mostly Cloudy,310,2013-03-31 23:34:00
7:14 PM,30.2,15.8,55,29.95,10.0,WNW,17.3,26.5,N/A,,Scattered Clouds,300,2013-04-01 00:14:00
7:33 PM,28.4,15.8,59,29.96,10.0,NW,13.8,26.5,N/A,,Mostly Cloudy,310,2013-04-01 00:33:00
8:13 PM,28.4,12.2,51,29.98,10.0,NW,19.6,24.2,N/A,,Scattered Clouds,310,2013-04-01 01:13:00
8:34 PM,28.4,12.2,51,29.99,10.0,NW,13.8,19.6,N/A,,Mostly Cloudy,310,2013-04-01 01:34:00
8:53 PM,28.4,12.2,51,30.00,10.0,NW,13.8,-,N/A,,Mostly Cloudy,310,2013-04-01 01:53:00
9:14 PM,28.4,10.4,47,30.01,10.0,NW,13.8,20.7,N/A,,Scattered Clouds,310,2013-04-01 02:14:00
9:33 PM,28.4,8.6,43,30.01,10.0,NW,15.0,19.6,N/A,,Scattered Clouds,320,2013-04-01 02:33:00
9:53 PM,28.4,6.8,40,30.02,10.0,NW,11.5,-,N/A,,Scattered Clouds,310,2013-04-01 02:53:00
10:14 PM,26.6,10.4,51,30.02,10.0,WNW,13.8,-,N/A,,Scattered Clouds,300,2013-04-01 03:14:00
10:33 PM,26.6,10.4,51,30.03,10.0,NW,9.2,-,N/A,,Scattered Clouds,310,2013-04-01 03:33:00
10:54 PM,26.6,10.4,51,30.03,10.0,NW,11.5,-,N/A,,Mostly Cloudy,310,2013-04-01 03:54:00
11:14 PM,26.6,8.6,47,30.03,10.0,NW,12.7,20.7,N/A,,Mostly Cloudy,310,2013-04-01 04:14:00
11:33 PM,26.6,10.4,51,30.03,10.0,WNW,16.1,-,N/A,,Mostly Cloudy,300,2013-04-01 04:33:00
11:54 PM,26.6,8.6,47,30.04,10.0,NW,10.4,-,N/A,,Mostly Cloudy,310,2013-04-01 04:54:00